Wind_Speed
3 4 4 2 3 2 3 3 3 3 3 4 4 6 7 7 8 8 8 7 6 6 5 4 3 4 5 6 6 7 7 7 5 5 5 5 5 5 5 4 4 4 5
2 4 3 1 2 2 2 3 4 4 5 5 5 5 6 7 7 7 8 7 7 6 6 6 5 6 6 6 6 7 7 7 6 6 5 7 7 6 6 5 4 2 4
5 3 3 1 1 2 2 3 4 5 6 6 6 6 6 6 6 6 7 7 6 6 7 7 7 7 7 7 7 8 8 8 7 7 6 6 6 7 7 6 5 4 5
4 3 2 2 2 3 4 5 5 5 6 6 7 7 8 9 9 9 9 9 8 8 8 8 8 8 8 8 7 8 8 8 8 8 7 7 7 7 7 7 8 7 6
5 5 4 3 4 5 5 6 7 8 9 10 10 11 11 12 12 12 13 12 11 11 10 9 9 9 9 9 8 8 8 8 8 8 8 8 8 8 9 10 12 9 8
5 5 5 4 5 6 7 8 9 10 10 11 12 12 13 14 14 15 15 15 14 14 14 14 14 13 13 11 10 10 11 11 10 9 9 9 9 10 12 11 9 10 12
4 4 4 3 5 6 8 9 9 10 10 11 12 12 13 13 14 14 14 15 16 15 15 16 16 16 17 16 16 15 15 14 14 13 12 11 10 11 12 14 14 14 14
5 3 3 3 5 7 8 9 10 10 11 12 13 13 14 14 14 14 13 13 14 14 15 15 16 16 16 17 17 17 18 17 16 14 14 14 12 13 14 14 15 16 16
4 3 3 5 6 8 9 10 11 12 12 13 13 13 13 13 13 13 13 14 14 14 14 15 15 15 14 14 15 17 18 18 18 17 16 15 14 14 15 16 16 16 18
4 3 4 5 7 8 10 11 12 12 12 13 12 12 12 12 12 12 12 13 13 13 13 13 14 14 15 14 14 14 15 15 16 17 17 18 17 17 16 17 17 18 18
4 3 4 6 8 9 10 11 12 12 12 12 12 12 12 12 12 12 12 13 13 13 14 14 15 16 16 16 16 17 16 16 15 15 15 15 16 18 19 20 20 18 18
5 4 4 6 7 9 10 11 12 12 12 12 12 13 13 13 13 12 13 13 14 14 15 15 16 16 17 17 17 17 18 18 18 18 17 17 16 16 17 19 19 18 18
6 4 4 6 7 9 11 12 12 13 14 14 13 13 12 12 12 12 12 13 13 14 14 14 15 15 15 15 15 15 15 16 16 17 19 20 21 20 20 21 21 21 20
6 5 5 8 9 10 11 13 13 13 13 12 13 13 12 12 12 13 13 13 13 13 13 13 13 13 13 14 15 15 15 15 15 15 16 17 19 20 21 22 23 24 24
6 6 7 9 9 10 12 13 13 12 11 11 11 11 12 13 13 13 13 13 12 12 12 11 11 11 10 11 12 12 13 13 14 14 14 14 14 15 16 18 21 23 25
7 6 8 9 9 11 12 13 13 12 12 12 13 14 14 13 12 12 12 12 12 12 12 12 12 12 12 12 12 12 13 13 13 12 13 13 13 13 14 15 16 17 18
6 7 7 8 9 11 13 13 12 11 11 11 12 13 12 12 12 12 13 13 13 12 12 12 12 13 13 13 14 13 13 13 11 9 8 9 10 10 12 13 14 15 15
8 7 7 8 9 11 12 13 11 11 11 11 12 13 13 13 13 13 14 14 13 13 14 14 14 12 12 12 12 11 10 9 8 7 6 7 8 10 12 12 12 12 13
11 9 7 8 10 11 12 11 10 10 10 10 12 12 12 12 12 12 12 12 13 14 14 15 15 16 15 14 14 11 10 8 7 7 7 8 9 10 11 11 11 12 13
13 11 8 9 11 13 11 9 9 9 9 10 11 12 11 11 12 12 12 14 15 15 16 16 16 17 17 16 14 12 9 7 6 6 7 9 11 11 12 11 11 11 10
15 11 8 10 13 13 10 9 8 7 8 9 11 12 12 12 13 13 13 13 14 14 14 15 16 16 16 16 12 11 6 7 6 7 10 12 14 13 14 14 14 13 13
13 10 9 13 14 9 10 10 9 9 10 10 11 11 12 12 12 12 13 13 14 15 15 16 17 17 17 17 16 12 3 8 11 12 15 16 11 13 17 17 16 15 16
10 8 10 12 8 9 11 11 12 13 13 12 13 12 12 12 12 13 14 14 15 15 15 16 16 16 17 16 16 10 6 4 17 10 11 13 13 15 19 18 17 16 18
5 7 8 8 9 10 13 14 15 16 17 16 16 15 14 13 13 13 14 15 16 16 16 17 17 16 16 16 15 13 13 13 7 9 9 11 15 14 18 16 16 15 15
4 5 8 11 12 14 16 17 18 19 18 18 19 18 17 16 15 15 16 17 17 18 18 18 18 17 17 16 15 15 15 14 15 12 21 15 21 13 12 18 16 13 13
4 7 10 13 13 15 17 19 22 21 19 19 19 20 19 18 17 16 17 19 19 20 20 20 20 19 18 17 17 16 16 15 16 14 19 25 26 21 18 13 14 14 13
Wind_Direction
114 102 102 74 60 28 22 15 3 359 356 352 352 352 352 351 348 348 352 354 358 2 1 353 331 336 351 347 344 350 359 357 344 310 282 288 303 299 290 290 315 341 350
135 118 65 60 53 21 5 355 344 343 344 337 328 337 328 327 328 327 330 331 337 337 337 339 338 332 326 322 323 329 335 338 336 322 300 278 274 278 287 282 283 304 333
150 129 271 301 357 357 340 336 332 329 328 324 319 319 316 318 318 322 323 324 311 315 315 320 326 327 322 324 321 319 321 321 321 319 308 291 278 276 276 275 269 283 312
179 209 245 289 318 307 312 315 315 317 316 313 312 311 309 307 305 303 304 308 309 306 305 305 306 311 310 310 310 311 316 314 309 302 308 297 283 269 275 276 278 273 297
193 205 239 277 302 311 317 313 312 308 306 304 302 301 297 294 295 296 295 295 294 292 294 296 296 298 300 297 296 300 300 299 296 289 285 290 283 270 273 288 297 267 283
188 216 251 285 309 319 319 319 315 313 310 304 301 296 293 293 293 290 289 289 288 285 283 281 280 281 284 285 287 286 282 281 282 282 280 278 283 277 275 282 293 276 278
189 216 258 294 312 320 324 326 324 321 317 312 308 307 305 302 300 297 294 289 288 288 286 283 279 278 279 281 280 282 285 283 283 279 276 272 271 274 276 277 278 281 285
196 228 267 300 317 327 333 334 328 323 320 317 317 314 310 307 303 301 300 298 297 296 293 291 288 287 283 280 280 279 279 280 283 281 276 273 268 267 272 275 276 271 275
199 231 278 311 329 336 339 334 330 330 327 326 326 323 321 317 313 308 302 299 297 297 296 295 295 296 294 291 286 280 279 279 279 277 273 272 269 266 268 272 271 274 272
216 252 289 323 335 340 339 334 332 332 330 329 327 324 323 320 318 315 310 307 307 306 306 304 303 302 302 300 298 295 291 288 286 282 276 272 273 273 271 276 277 275 279
220 257 301 327 336 337 334 335 335 333 330 327 324 324 327 325 322 320 319 317 314 310 307 305 303 301 299 297 296 294 291 290 289 287 284 279 275 275 277 277 280 285 282
229 265 306 327 330 330 335 337 334 332 329 329 329 330 332 331 329 327 323 319 316 313 311 308 305 303 301 299 295 292 290 287 283 279 276 275 274 272 274 278 282 280 280
239 267 303 320 323 330 335 335 335 333 334 336 335 334 333 335 335 332 329 326 324 321 318 313 309 305 303 300 298 296 293 290 286 281 277 275 274 273 272 275 278 282 280
247 274 301 320 322 330 336 338 337 338 337 337 338 338 339 338 336 333 333 333 333 331 330 327 321 316 311 306 303 302 300 297 295 291 286 282 279 276 273 272 271 273 274
245 275 305 315 319 327 335 337 337 335 334 338 341 340 339 337 336 340 341 341 340 339 336 334 332 330 324 317 310 306 301 299 295 293 291 291 291 288 284 280 280 277 278
247 284 304 313 316 325 332 332 331 333 339 340 341 342 340 343 341 340 340 339 337 333 331 329 328 329 328 325 320 318 314 309 305 299 294 292 292 294 292 292 290 289 287
249 273 297 308 316 322 325 330 332 336 340 342 342 341 342 340 339 337 337 339 338 337 335 332 332 330 330 328 324 318 312 308 306 304 298 298 297 296 296 297 299 299 298
249 275 294 313 321 322 327 328 332 333 334 337 339 341 341 340 340 340 339 340 340 339 337 338 336 338 331 327 324 314 303 295 299 302 302 300 299 300 300 300 301 303 305
247 261 282 309 322 323 322 320 324 328 335 338 340 340 340 340 338 339 336 336 338 341 339 338 338 336 338 342 339 330 319 302 293 293 295 303 310 314 315 314 311 308 304
243 252 279 308 318 319 309 312 321 333 334 336 337 338 340 337 333 330 333 338 341 342 343 341 342 344 343 346 346 337 317 297 286 289 301 313 317 317 314 311 310 312 316
239 250 281 304 309 309 301 302 309 318 325 331 333 335 335 334 333 331 334 337 338 339 338 339 340 340 340 342 344 337 295 274 269 285 296 306 311 316 319 315 312 310 309
233 250 283 302 307 297 292 294 299 302 311 320 323 328 331 328 324 324 327 330 332 335 336 339 341 343 345 346 349 345 312 283 277 296 290 294 295 315 317 311 308 308 309
226 258 294 305 300 288 291 296 297 295 299 306 308 316 320 319 318 320 322 324 327 328 330 333 336 338 339 342 343 346 329 317 316 301 299 298 294 308 314 310 305 304 305
227 280 294 298 296 296 295 295 292 290 291 296 298 303 306 309 312 314 314 315 316 317 320 322 325 328 331 334 334 331 321 308 311 306 309 300 297 305 307 307 306 305 302
247 277 285 286 289 290 289 289 288 288 291 291 291 294 297 299 305 311 310 307 308 308 309 311 314 316 319 322 323 322 317 313 305 293 305 302 305 317 306 312 311 317 318
264 288 300 303 305 296 288 286 284 283 288 290 295 294 290 291 296 304 306 308 306 304 302 303 303 305 307 310 312 312 309 305 301 298 297 306 313 317 320 316 316 311 311
Height
1556 1556 1556 1556 1556 1556 1556 1556 1556 1556 1556 1556 1556 1556 1555 1555 1554 1554 1553 1552 1552 1551 1550 1550 1549 1549 1549 1548 1548 1547 1547 1546 1545 1545 1545 1544 1544 1545 1545 1545 1545 1545 1545
1556 1556 1556 1556 1556 1556 1556 1556 1556 1556 1556 1556 1555 1555 1555 1555 1554 1554 1553 1552 1551 1551 1550 1549 1549 1549 1548 1548 1547 1547 1546 1546 1545 1544 1544 1544 1544 1544 1544 1544 1544 1544 1544
1555 1555 1556 1556 1556 1556 1556 1556 1556 1556 1556 1555 1555 1554 1554 1553 1553 1552 1552 1551 1551 1550 1549 1549 1549 1548 1547 1547 1546 1546 1545 1545 1544 1544 1543 1543 1543 1543 1543 1543 1543 1544 1544
1554 1555 1556 1556 1556 1556 1556 1556 1556 1555 1555 1554 1554 1553 1553 1552 1552 1552 1551 1550 1550 1549 1549 1548 1547 1546 1546 1545 1545 1544 1544 1543 1543 1542 1542 1542 1542 1542 1542 1543 1543 1543 1543
1554 1555 1556 1556 1556 1556 1556 1556 1556 1555 1554 1554 1553 1552 1551 1550 1550 1550 1549 1549 1548 1547 1547 1546 1545 1545 1544 1543 1543 1542 1542 1541 1540 1540 1540 1540 1540 1541 1541 1541 1541 1541 1541
1554 1555 1556 1556 1556 1556 1556 1556 1555 1554 1553 1552 1551 1550 1549 1548 1548 1547 1546 1545 1545 1545 1544 1544 1543 1542 1542 1541 1541 1540 1539 1538 1538 1538 1538 1538 1538 1538 1539 1539 1539 1539 1539
1554 1555 1556 1556 1556 1556 1556 1555 1554 1553 1552 1551 1550 1549 1548 1546 1545 1544 1543 1542 1542 1541 1541 1540 1540 1539 1539 1538 1538 1537 1537 1536 1536 1536 1536 1535 1536 1536 1536 1536 1537 1537 1537
1554 1555 1555 1556 1556 1556 1555 1554 1553 1552 1551 1549 1548 1547 1546 1545 1543 1542 1541 1540 1539 1539 1538 1537 1536 1536 1536 1535 1535 1534 1534 1533 1533 1534 1533 1533 1533 1533 1532 1533 1533 1533 1533
1554 1554 1555 1555 1555 1555 1554 1553 1552 1551 1550 1548 1547 1545 1544 1542 1541 1540 1539 1538 1536 1536 1535 1534 1533 1533 1532 1532 1531 1531 1530 1530 1530 1530 1530 1530 1530 1530 1530 1530 1530 1529 1529
1553 1554 1554 1555 1555 1554 1553 1552 1551 1550 1548 1547 1545 1544 1543 1541 1540 1538 1537 1536 1535 1534 1533 1532 1531 1530 1530 1529 1528 1527 1527 1526 1526 1526 1526 1526 1527 1527 1527 1526 1526 1526 1526
1553 1554 1554 1554 1554 1553 1552 1550 1550 1549 1548 1546 1544 1543 1541 1540 1539 1537 1536 1534 1533 1532 1531 1530 1529 1528 1527 1526 1525 1524 1524 1523 1523 1523 1523 1523 1523 1523 1523 1523 1523 1523 1523
1552 1553 1553 1554 1553 1552 1551 1550 1548 1547 1546 1544 1543 1541 1540 1538 1537 1536 1535 1533 1532 1531 1530 1528 1527 1526 1525 1523 1522 1521 1520 1520 1519 1519 1519 1519 1519 1519 1519 1519 1519 1519 1519
1552 1553 1553 1553 1552 1551 1550 1549 1547 1546 1545 1544 1542 1541 1539 1538 1536 1535 1533 1532 1531 1530 1528 1527 1525 1524 1522 1520 1519 1518 1517 1516 1515 1515 1515 1515 1515 1516 1516 1516 1516 1515 1515
1552 1552 1552 1552 1551 1551 1549 1548 1547 1546 1544 1543 1541 1540 1538 1537 1535 1534 1532 1531 1529 1528 1526 1525 1523 1521 1520 1518 1516 1515 1514 1513 1512 1511 1511 1511 1510 1510 1510 1511 1510 1510 1510
1550 1551 1552 1551 1551 1550 1549 1547 1546 1545 1543 1541 1540 1538 1537 1536 1535 1533 1531 1529 1527 1526 1524 1523 1521 1519 1517 1515 1513 1512 1512 1511 1510 1509 1508 1507 1507 1506 1506 1506 1506 1506 1505
1549 1550 1550 1550 1550 1549 1547 1546 1545 1544 1542 1541 1539 1538 1536 1534 1533 1532 1529 1527 1526 1524 1523 1521 1519 1518 1516 1514 1513 1511 1510 1509 1508 1507 1506 1505 1504 1503 1502 1502 1502 1501 1501
1548 1549 1549 1549 1548 1547 1546 1545 1544 1543 1541 1539 1538 1537 1535 1533 1532 1530 1529 1527 1525 1524 1522 1520 1519 1517 1516 1514 1512 1510 1509 1507 1506 1505 1504 1503 1502 1501 1500 1499 1498 1497 1497
1547 1547 1547 1547 1546 1546 1545 1544 1542 1541 1540 1538 1537 1536 1534 1533 1531 1529 1528 1527 1525 1523 1521 1519 1517 1516 1514 1511 1509 1508 1506 1505 1504 1503 1502 1501 1500 1499 1498 1497 1496 1495 1494
1545 1546 1545 1545 1545 1544 1543 1542 1541 1541 1539 1538 1536 1535 1533 1531 1530 1528 1527 1525 1524 1522 1520 1518 1515 1513 1511 1510 1508 1506 1504 1503 1502 1502 1500 1499 1498 1498 1497 1496 1494 1493 1492
1542 1543 1543 1543 1543 1542 1541 1540 1540 1539 1539 1537 1536 1534 1532 1530 1529 1528 1526 1524 1523 1521 1519 1517 1515 1512 1510 1508 1506 1504 1502 1501 1500 1500 1499 1498 1497 1496 1495 1494 1493 1491 1490
1540 1541 1541 1542 1541 1540 1540 1539 1538 1539 1538 1536 1535 1533 1531 1530 1529 1527 1525 1523 1521 1520 1518 1515 1513 1510 1508 1506 1504 1503 1500 1499 1498 1498 1497 1496 1495 1493 1492 1491 1490 1489 1487
1538 1539 1540 1539 1538 1538 1538 1538 1537 1537 1536 1535 1533 1532 1530 1529 1527 1526 1524 1522 1520 1519 1517 1515 1512 1510 1507 1505 1503 1501 1500 1499 1496 1495 1494 1493 1492 1491 1489 1488 1487 1485 1484
1537 1538 1538 1537 1536 1536 1536 1535 1535 1535 1534 1533 1532 1530 1529 1527 1526 1524 1522 1521 1519 1517 1515 1513 1511 1509 1507 1506 1504 1504 1500 1498 1496 1493 1491 1490 1490 1488 1486 1484 1483 1481 1480
1536 1536 1536 1535 1534 1533 1533 1532 1532 1531 1530 1530 1529 1528 1527 1526 1524 1522 1521 1519 1517 1516 1514 1512 1510 1508 1506 1505 1503 1502 1501 1499 1496 1492 1490 1489 1488 1486 1484 1481 1480 1478 1476
1534 1534 1533 1533 1532 1531 1530 1529 1528 1527 1527 1526 1526 1525 1524 1523 1522 1520 1518 1516 1515 1513 1511 1510 1508 1506 1504 1503 1501 1500 1498 1496 1494 1492 1486 1485 1485 1484 1481 1479 1477 1475 1473
1532 1532 1531 1530 1529 1528 1526 1524 1523 1522 1523 1522 1522 1520 1520 1519 1518 1516 1514 1512 1511 1510 1508 1506 1505 1503 1501 1500 1499 1497 1495 1494 1491 1490 1486 1482 1479 1478 1478 1475 1473 1471 1469